Location: Sungai Laei
(2.6000°N, 113.7167°E)
Time: 10:49:18
(UTC+00:00)

Cosmos 1023 Rocket - Pass Details

Date: 22 May 2022
Orbit: 736 x 772 km, 74.1° (Epoch: 06 July)

Event Time Altitude Azimuth Distance (km) Brightness Sun altitude
Rises 21:08:48 0° 348° (NNW) 3,223 7.9 -16.1°
Reaches altitude 10° 21:11:11 10° 348° (NNW) 2,296 7.1 -15.6°
Maximum altitude 21:16:24 89° 78° (ENE) 765 4.5 -14.3°
Drops below altitude 10° 21:21:35 10° 167° (SSE) 2,281 6.9 -13.1°
Sets 21:23:56 0° 167° (SSE) 3,202 7.6 -12.6°
